DW2147 Weather Reports


Display with metric or nautical units.
time (UTC)temp
F
wind
direction
speed
MPH
gust
MPH
rain 1hr
in
rain 24hr
in
rain mn
in
humidity
%
barometer
mb
20260901083012 72 0 2.0 5.0 0.00 0.01 0.00 71 1018.8
20260901082511 72 0 3.0 8.0 0.00 0.01 0.00 71 1018.8
20260901082009 72 0 3.0 8.0 0.00 0.01 0.00 71 1018.8
20260901081509 72 0 2.0 5.0 0.00 0.01 0.00 71 1018.8
20260901081003 72 0 3.0 8.0 0.00 0.01 0.00 71 1018.8
20260901080502 72 0 3.0 8.0 0.00 0.01 0.00 71 1018.7
20260901080001 72 0 3.0 5.0 0.00 0.01 0.00 71 1018.7
20260901075503 72 0 3.0 5.0 0.00 0.01 0.00 71 1018.8
20260901075003 72 0 3.0 5.0 0.00 0.01 0.00 71 1018.8
20260901074506 72 0 2.0 5.0 0.00 0.01 0.00 71 1018.8
20260901074232 72 0 2.0 5.0 0.00 0.01 0.00 71 1018.9
20260901073459 72 0 1.0 4.0 0.00 0.01 0.00 71 1018.8
20260901072959 72 0 2.0 3.0 0.00 0.01 0.00 71 1018.8
20260901072459 72 0 2.0 4.0 0.00 0.01 0.00 71 1018.8
20260901071957 72 0 2.0 4.0 0.00 0.01 0.00 71 1018.8
20260901071456 72 0 3.0 4.0 0.00 0.01 0.00 70 1018.7
20260901071225 72 0 2.0 4.0 0.00 0.01 0.00 70 1018.8
20260901070723 72 0 2.0 5.0 0.00 0.01 0.00 70 1018.8
20260901065952 72 0 2.0 5.0 0.00 0.01 0.00 70 1018.9
20260901065451 72 172 2.0 3.0 0.00 0.01 0.00 70 1018.9
20260901064951 72 173 1.0 3.0 0.00 0.01 0.00 70 1018.9
20260901064723 72 0 2.0 3.0 0.00 0.01 0.00 70 1019.0
20260901063949 72 0 2.0 3.0 0.00 0.01 0.00 70 1019.2
20260901063447 73 0 1.0 3.0 0.00 0.01 0.00 70 1019.2
20260901063218 73 179 1.0 3.0 0.00 0.01 0.00 69 1019.2
20260901062718 73 0 1.0 3.0 0.00 0.01 0.00 69 1019.3
20260901061945 73 0 0.0 2.0 0.00 0.01 0.00 69 1019.2
20260901061447 73 0 0.0 2.0 0.00 0.01 0.00 69 1019.2
20260901060943 73 0 0.0 2.0 0.00 0.01 0.00 69 1019.2
20260901060440 73 0 1.0 3.0 0.00 0.01 0.00 69 1019.2
20260901055941 73 0 1.0 4.0 0.00 0.01 0.00 69 1019.3
20260901055438 73 0 2.0 4.0 0.00 0.01 0.00 69 1019.2
20260901054937 73 0 2.0 4.0 0.00 0.01 0.00 69 1019.2
20260901054711 73 0 3.0 4.0 0.00 0.01 0.00 69 1019.1
20260901053933 73 165 3.0 4.0 0.00 0.01 0.00 69 1019.1
20260901053433 73 0 3.0 4.0 0.00 0.01 0.00 69 1019.2
20260901052931 73 0 2.0 4.0 0.00 0.01 0.00 69 1019.3
20260901052433 73 0 2.0 4.0 0.00 0.01 0.00 69 1019.3
20260901052201 73 0 2.0 4.0 0.00 0.01 0.00 69 1019.4
20260901051431 73 0 2.0 5.0 0.00 0.01 0.00 69 1019.3
20260901050926 73 0 2.0 5.0 0.00 0.01 0.00 69 1019.3
20260901050427 73 236 2.0 5.0 0.00 0.01 0.00 69 1019.2
20260901045928 73 0 2.0 5.0 0.00 0.01 0.00 69 1019.2
20260901045427 73 0 2.0 4.0 0.00 0.01 0.00 69 1019.1
20260901044925 73 0 2.0 4.0 0.00 0.01 0.00 69 1019.0
20260901044424 73 0 2.0 4.0 0.00 0.01 0.00 69 1019.1
20260901043921 73 0 2.0 4.0 0.00 0.01 0.00 69 1019.1
20260901043420 73 0 2.0 5.0 0.00 0.01 0.00 69 1019.2
20260901042919 73 225 2.0 5.0 0.00 0.01 0.00 69 1019.0
20260901042416 73 0 2.0 5.0 0.00 0.01 0.00 69 1019.0
20260901041917 73 0 3.0 5.0 0.00 0.01 0.00 69 1018.9
20260901041416 73 0 3.0 6.0 0.00 0.01 0.00 69 1018.9
20260901040910 73 0 3.0 8.0 0.00 0.01 0.00 69 1018.8
20260901040409 73 0 4.0 8.0 0.00 0.01 0.00 69 1018.8
20260901035909 73 0 3.0 8.0 0.00 0.01 0.01 69 1018.8
20260901035407 73 0 3.0 8.0 0.00 0.01 0.01 70 1018.8
20260901034909 73 0 2.0 4.0 0.00 0.01 0.01 70 1018.8
20260901034407 73 0 2.0 4.0 0.00 0.01 0.01 70 1018.8
20260901033910 74 0 3.0 6.0 0.00 0.01 0.01 69 1018.8
20260901033402 74 0 2.0 6.0 0.00 0.01 0.01 70 1018.9
20260901032903 74 0 2.0 5.0 0.00 0.01 0.01 69 1019.0
20260901032402 74 0 2.0 6.0 0.00 0.01 0.01 69 1019.0
20260901031903 74 0 3.0 6.0 0.00 0.01 0.01 70 1018.9
20260901031401 74 0 3.0 6.0 0.00 0.01 0.01 70 1019.0
20260901031132 74 0 2.0 5.0 0.00 0.01 0.01 70 1019.1
20260901030355 74 0 2.0 4.0 0.00 0.01 0.01 70 1019.3
20260901025854 74 0 2.0 4.0 0.00 0.01 0.01 70 1019.4
20260901025357 74 0 1.0 4.0 0.00 0.01 0.01 71 1019.4
20260901025126 74 0 1.0 4.0 0.00 0.01 0.01 71 1019.4
20260901024355 74 0 0.0 3.0 0.00 0.01 0.01 71 1019.5
20260901023855 74 0 0.0 0.0 0.00 0.01 0.01 71 1019.6
20260901023349 74 180 0.0 0.0 0.00 0.01 0.01 71 1019.6
20260901022846 74 180 0.0 0.0 0.00 0.01 0.01 71 1019.5
20260901022345 75 180 0.0 1.0 0.00 0.01 0.01 71 1019.6
20260901021843 75 180 0.0 1.0 0.00 0.01 0.01 71 1019.7
20260901021342 75 180 0.0 1.0 0.00 0.01 0.01 71 1019.6
20260901020838 75 180 0.0 0.0 0.00 0.01 0.01 71 1019.6
20260901020337 75 180 0.0 0.0 0.00 0.01 0.01 71 1019.6
20260901015836 75 0 1.0 3.0 0.00 0.01 0.01 71 1019.7
20260901015334 75 0 1.0 4.0 0.00 0.01 0.01 71 1019.7
20260901015105 75 0 1.0 5.0 0.00 0.01 0.01 71 1019.6
20260901014333 75 0 2.0 5.0 0.00 0.01 0.01 72 1019.6
20260901013830 75 0 3.0 5.0 0.00 0.01 0.01 72 1019.4
20260901013327 76 0 2.0 5.0 0.00 0.01 0.01 72 1019.3
20260901012828 76 0 2.0 5.0 0.00 0.01 0.01 72 1019.3
20260901012328 76 0 2.0 5.0 0.00 0.01 0.01 72 1019.3
20260901012102 76 0 3.0 5.0 0.00 0.01 0.01 72 1019.3
20260901011325 76 0 3.0 6.0 0.00 0.01 0.01 72 1019.1
20260901010827 76 0 3.0 6.0 0.00 0.01 0.01 72 1019.2
20260901010322 76 0 3.0 6.0 0.00 0.01 0.01 72 1019.1
20260901005821 76 0 3.0 6.0 0.00 0.01 0.01 72 1019.1
20260901005322 76 0 2.0 6.0 0.00 0.01 0.01 72 1019.0
20260901005052 76 0 3.0 8.0 0.00 0.01 0.01 72 1019.1
20260901004322 77 0 3.0 10.0 0.00 0.01 0.01 71 1019.0
20260901004053 77 0 4.0 10.0 0.00 0.01 0.01 71 1018.9
20260901003318 77 0 4.0 9.0 0.00 0.01 0.01 71 1018.7
20260901002818 77 0 4.0 9.0 0.00 0.01 0.01 71 1018.7
20260901002318 77 0 4.0 9.0 0.00 0.01 0.01 71 1018.8
20260901001818 78 0 5.0 9.0 0.00 0.01 0.01 71 1018.7
20260901001318 78 0 4.0 9.0 0.00 0.01 0.01 70 1018.7
20260901000818 78 0 4.0 9.0 0.00 0.01 0.01 70 1018.6
20260901000314 78 0 4.0 9.0 0.00 0.01 0.01 70 1018.8
20260831235815 79 0 4.0 8.0 0.00 0.01 0.01 69 1018.7
20260831235314 79 221 4.0 10.0 0.00 0.01 0.01 69 1018.9
20260831234813 80 0 4.0 12.0 0.00 0.01 0.01 69 1018.8
20260831234313 80 0 4.0 12.0 0.00 0.01 0.01 68 1018.8
20260831234046 80 0 6.0 15.0 0.00 0.01 0.01 68 1018.9
20260831233314 81 0 6.0 15.0 0.00 0.01 0.01 68 1018.7
20260831232814 81 0 3.0 13.0 0.00 0.01 0.01 69 1018.6
20260831232544 82 0 1.0 3.0 0.00 0.01 0.01 68 1018.5
20260831231815 82 0 1.0 2.0 0.00 0.01 0.01 67 1018.6
20260831231318 82 0 1.0 3.0 0.00 0.01 0.01 67 1018.6
20260831231314 82 0 0.0 2.0 0.00 0.01 0.01 67 1018.6
20260831230314 82 0 1.0 3.0 0.00 0.01 0.01 67 1018.5
20260831230044 82 0 2.0 3.0 0.00 0.01 0.01 67 1018.6
20260831225315 82 0 1.0 3.0 0.00 0.01 0.01 67 1018.6
20260831224805 83 0 2.0 4.0 0.00 0.01 0.01 66 1018.6
20260831224305 83 0 2.0 5.0 0.00 0.01 0.01 66 1018.6
20260831224038 83 0 3.0 5.0 0.00 0.01 0.01 66 1018.5
20260831223304 83 0 3.0 5.0 0.00 0.01 0.01 66 1018.5
20260831222804 83 0 3.0 5.0 0.00 0.01 0.01 65 1018.8
20260831222534 84 0 3.0 6.0 0.00 0.01 0.01 65 1018.8
20260831221759 84 0 3.0 8.0 0.00 0.01 0.01 65 1018.8
20260831221259 84 0 3.0 8.0 0.00 0.01 0.01 64 1019.0
20260831220800 85 0 3.0 8.0 0.00 0.01 0.01 63 1019.0
20260831220534 85 0 4.0 8.0 0.00 0.01 0.01 64 1019.0
20260831220258 85 0 3.0 8.0 0.00 0.01 0.01 63 1019.1
20260831215256 85 0 4.0 8.0 0.00 0.01 0.01 63 1019.0
20260831214750 85 0 3.0 6.0 0.00 0.01 0.01 64 1019.0
20260831214248 84 0 3.0 8.0 0.00 0.01 0.01 64 1019.1
20260831213747 84 0 4.0 8.0 0.00 0.01 0.01 63 1019.2
20260831213247 84 0 4.0 8.0 0.00 0.01 0.01 63 1019.2
20260831213018 84 0 3.0 8.0 0.00 0.01 0.01 64 1019.2
20260831212251 84 0 3.0 6.0 0.00 0.01 0.01 65 1019.3
20260831211745 83 0 4.0 6.0 0.00 0.01 0.01 65 1019.3
20260831211244 83 0 4.0 8.0 0.00 0.01 0.01 65 1019.2
20260831210744 83 0 2.0 8.0 0.00 0.01 0.01 65 1019.3
20260831210241 83 0 2.0 4.0 0.00 0.01 0.01 66 1019.2
20260831205740 83 0 2.0 6.0 0.00 0.01 0.01 66 1019.2
20260831205513 83 0 3.0 6.0 0.00 0.01 0.01 65 1019.1
20260831204734 83 0 3.0 6.0 0.00 0.01 0.01 67 1019.2
20260831204504 82 0 3.0 5.0 0.00 0.01 0.01 67 1019.2
20260831204001 82 0 3.0 6.0 0.00 0.01 0.01 67 1019.2
20260831203228 82 196 3.0 6.0 0.00 0.01 0.01 67 1019.3
20260831202731 82 0 2.0 4.0 0.00 0.01 0.01 68 1019.4
20260831202222 81 0 2.0 4.0 0.00 0.01 0.01 68 1019.5
20260831201952 81 214 2.0 4.0 0.00 0.01 0.01 68 1019.6
20260831201221 81 221 2.0 3.0 0.00 0.01 0.01 67 1019.7
20260831200723 81 221 1.0 3.0 0.00 0.01 0.01 67 1019.7
20260831200453 81 223 1.0 2.0 0.00 0.01 0.01 67 1019.8
20260831195722 81 0 1.0 3.0 0.00 0.01 0.01 67 1019.8
20260831195217 81 0 2.0 4.0 0.00 0.01 0.01 66 1019.9
20260831194718 81 0 2.0 4.0 0.00 0.01 0.01 66 1019.9
20260831194219 81 0 1.0 4.0 0.00 0.01 0.01 66 1019.8
20260831193719 81 0 2.0 6.0 0.00 0.01 0.01 66 1019.9
20260831193216 81 0 3.0 8.0 0.00 0.01 0.01 66 1019.9
20260831192716 81 0 3.0 8.0 0.00 0.01 0.01 66 1020.0
20260831192214 82 0 3.0 6.0 0.00 0.01 0.01 67 1020.0
20260831191712 82 0 3.0 6.0 0.00 0.01 0.01 66 1020.1
20260831191210 82 0 3.0 6.0 0.00 0.01 0.01 66 1020.1
20260831190710 82 0 3.0 5.0 0.00 0.01 0.01 66 1020.2
20260831190210 82 0 3.0 6.0 0.00 0.01 0.01 65 1020.3
20260831185712 82 0 2.0 6.0 0.00 0.01 0.01 65 1020.2
20260831185208 82 0 2.0 5.0 0.00 0.01 0.01 65 1020.4
20260831185203 82 0 2.0 5.0 0.00 0.01 0.01 66 1020.3
20260831184203 82 0 2.0 8.0 0.00 0.01 0.01 67 1020.2
20260831183704 82 0 3.0 8.0 0.00 0.01 0.01 65 1020.2
20260831183204 82 0 4.0 9.0 0.00 0.01 0.01 65 1020.3
20260831182704 81 0 4.0 9.0 0.00 0.01 0.01 65 1020.3
20260831182430 82 0 3.0 8.0 0.00 0.01 0.01 66 1020.3
20260831181700 81 0 4.0 9.0 0.00 0.01 0.01 65 1020.3
20260831181200 81 236 5.0 9.0 0.00 0.01 0.01 65 1020.4
20260831180658 81 0 5.0 11.0 0.00 0.01 0.01 65 1020.5
20260831180158 81 0 5.0 11.0 0.00 0.01 0.01 66 1020.4
20260831175929 81 0 4.0 11.0 0.00 0.01 0.01 66 1020.4
20260831175156 81 0 4.0 11.0 0.00 0.01 0.01 66 1020.4
20260831174652 81 0 4.0 9.0 0.00 0.01 0.01 66 1020.4
20260831174153 81 0 6.0 11.0 0.00 0.01 0.01 66 1020.5
20260831173654 81 0 6.0 11.0 0.00 0.01 0.01 65 1020.5
20260831173152 81 0 5.0 9.0 0.00 0.01 0.01 65 1020.5
20260831172654 81 0 5.0 9.0 0.00 0.01 0.01 65 1020.5
20260831172146 82 0 5.0 10.0 0.00 0.01 0.01 64 1020.7
20260831171645 81 191 6.0 11.0 0.00 0.01 0.01 65 1020.5
20260831171145 81 0 5.0 11.0 0.00 0.01 0.01 65 1020.6
20260831170646 81 0 5.0 10.0 0.00 0.01 0.01 65 1020.8
20260831170146 81 0 6.0 10.0 0.00 0.01 0.01 64 1020.8
20260831165646 81 0 7.0 12.0 0.00 0.01 0.01 65 1020.9
20260831165144 80 0 6.0 12.0 0.00 0.01 0.01 64 1020.9
20260831164642 80 0 4.0 11.0 0.00 0.01 0.01 65 1020.9
20260831164141 80 0 4.0 11.0 0.00 0.01 0.01 65 1020.9
20260831163640 79 213 4.0 8.0 0.00 0.01 0.01 65 1020.9
20260831163139 79 0 3.0 8.0 0.00 0.01 0.01 65 1020.9
20260831162640 79 0 3.0 6.0 0.00 0.01 0.01 66 1021.0
20260831162138 79 0 3.0 8.0 0.00 0.01 0.01 65 1021.1
20260831161637 78 0 5.0 12.0 0.00 0.01 0.01 65 1021.1
20260831161136 79 0 6.0 13.0 0.00 0.01 0.01 64 1021.2
20260831160913 79 0 6.0 11.0 0.00 0.01 0.01 64 1021.1
20260831160637 79 0 5.0 13.0 0.00 0.01 0.01 64 1021.1
20260831155636 79 0 6.0 13.0 0.00 0.01 0.01 63 1021.0
20260831155140 79 0 4.0 13.0 0.00 0.01 0.01 63 1021.1
20260831154634 78 0 5.0 13.0 0.00 0.01 0.01 64 1021.1
20260831154132 78 0 6.0 13.0 0.00 0.01 0.01 63 1021.1
20260831153633 78 0 5.0 12.0 0.00 0.01 0.01 63 1021.0
20260831153133 77 0 5.0 11.0 0.00 0.01 0.01 64 1020.9
20260831152634 76 0 4.0 9.0 0.00 0.01 0.01 63 1021.0
20260831152404 76 0 4.0 9.0 0.00 0.01 0.01 64 1020.9
20260831151632 76 0 4.0 9.0 0.00 0.01 0.01 64 1021.0
20260831151131 76 0 4.0 9.0 0.00 0.01 0.01 64 1020.9
20260831150903 75 0 3.0 9.0 0.00 0.01 0.01 65 1021.0
20260831150126 75 0 3.0 6.0 0.00 0.01 0.01 65 1021.2
20260831145621 75 0 3.0 6.0 0.00 0.01 0.01 66 1021.2
20260831145120 74 0 2.0 6.0 0.00 0.01 0.01 68 1021.2
20260831144852 74 0 1.0 4.0 0.00 0.01 0.01 68 1021.1
20260831144122 74 187 1.0 3.0 0.00 0.01 0.01 69 1021.1
20260831143621 73 187 2.0 4.0 0.01 0.01 0.01 69 1021.1
20260831143121 73 0 2.0 5.0 0.01 0.01 0.01 70 1021.0
20260831142617 73 0 1.0 5.0 0.01 0.01 0.01 70 1021.0
20260831142117 73 202 1.0 3.0 0.01 0.01 0.01 71 1021.1
20260831141620 72 202 2.0 3.0 0.01 0.01 0.01 71 1021.1
20260831141349 72 0 2.0 4.0 0.01 0.01 0.01 70 1021.0
20260831140617 72 0 3.0 5.0 0.01 0.01 0.01 70 1020.9
20260831140118 72 0 3.0 5.0 0.01 0.01 0.01 71 1021.0
20260831135849 72 0 2.0 4.0 0.01 0.01 0.01 71 1021.1
20260831135116 72 0 2.0 3.0 0.01 0.01 0.01 71 1021.2
20260831134616 72 0 1.0 3.0 0.01 0.01 0.01 71 1021.2
20260831134118 71 178 0.0 0.0 0.01 0.01 0.01 71 1021.2
20260831133618 71 189 0.0 0.0 0.00 0.00 0.00 71 1021.1
20260831133348 71 190 0.0 0.0 0.00 0.00 0.00 71 1021.4
20260831132615 71 189 0.0 1.0 0.00 0.00 0.00 71 1021.2
20260831132114 71 191 1.0 3.0 0.00 0.00 0.00 71 1021.1
20260831131614 71 192 2.0 4.0 0.00 0.00 0.00 71 1021.0
20260831131115 71 0 2.0 4.0 0.00 0.00 0.00 71 1021.0
20260831130615 71 190 2.0 4.0 0.00 0.00 0.00 72 1020.9
20260831130114 71 179 2.0 4.0 0.00 0.00 0.00 72 1020.9
20260831125610 71 0 2.0 4.0 0.00 0.00 0.00 72 1020.8
20260831125111 71 0 1.0 4.0 0.00 0.00 0.00 72 1020.8
20260831124612 71 128 1.0 3.0 0.00 0.00 0.00 72 1020.9
20260831124343 71 0 2.0 3.0 0.00 0.00 0.00 72 1020.9
20260831123610 71 0 1.0 3.0 0.00 0.00 0.00 72 1020.7
20260831123111 70 0 0.0 3.0 0.00 0.00 0.00 72 1020.8
20260831122611 70 115 0.0 0.0 0.00 0.00 0.00 72 1020.8
20260831122104 70 114 0.0 0.0 0.00 0.00 0.00 72 1020.8
20260831121604 70 113 0.0 0.0 0.00 0.00 0.00 72 1020.9
20260831121105 70 114 0.0 0.0 0.00 0.00 0.00 72 1020.8
20260831120603 70 114 0.0 0.0 0.00 0.00 0.00 72 1020.7
20260831120103 70 121 0.0 0.0 0.00 0.00 0.00 72 1020.6
20260831115603 70 116 0.0 1.0 0.00 0.00 0.00 72 1020.6
20260831115100 70 115 1.0 3.0 0.00 0.00 0.00 72 1020.6
20260831114601 70 0 1.0 3.0 0.00 0.00 0.00 72 1020.5
20260831114327 70 114 1.0 3.0 0.00 0.00 0.00 72 1020.6
20260831113557 70 113 2.0 3.0 0.00 0.00 0.00 72 1020.5
20260831113328 70 79 1.0 3.0 0.00 0.00 0.00 72 1020.5
20260831112555 70 0 0.0 0.0 0.00 0.00 0.00 72 1020.5
20260831112053 70 78 0.0 0.0 0.00 0.00 0.00 72 1020.4
20260831111550 70 78 0.0 0.0 0.00 0.00 0.00 72 1020.3
20260831111050 70 80 0.0 0.0 0.00 0.00 0.00 72 1020.4
20260831110549 70 80 0.0 0.0 0.00 0.00 0.00 72 1020.3
20260831110319 70 80 0.0 0.0 0.00 0.00 0.00 72 1020.2
20260831105820 70 78 0.0 0.0 0.00 0.00 0.00 72 1020.2
20260831105040 70 80 0.0 0.0 0.00 0.00 0.00 71 1020.1
20260831104538 70 80 0.0 0.0 0.00 0.00 0.00 71 1020.0
20260831104037 70 78 0.0 0.0 0.00 0.00 0.00 71 1020.0
20260831103535 70 78 0.0 0.0 0.00 0.00 0.00 71 1020.0
20260831103038 70 78 0.0 0.0 0.00 0.00 0.00 71 1020.0
20260831102532 70 78 0.0 0.0 0.00 0.00 0.00 71 1020.0
20260831102030 70 78 0.0 0.0 0.00 0.00 0.00 71 1020.0
20260831101532 70 78 0.0 0.0 0.00 0.00 0.00 71 1019.9
20260831101031 70 78 0.0 0.0 0.00 0.00 0.00 71 1019.9
20260831100529 70 78 0.0 0.0 0.00 0.00 0.00 71 1020.0
20260831100029 70 77 0.0 0.0 0.00 0.00 0.00 71 1020.0
20260831095524 70 77 0.0 0.0 0.00 0.00 0.00 71 1020.1
20260831095023 70 79 0.0 0.0 0.00 0.00 0.00 71 1020.0
20260831094531 70 79 0.0 0.0 0.00 0.00 0.00 71 1019.8
20260831094526 70 78 0.0 0.0 0.00 0.00 0.00 71 1020.0
20260831093523 70 78 0.0 0.0 0.00 0.00 0.00 71 1019.8
20260831093023 70 77 0.0 0.0 0.00 0.00 0.00 71 1019.8
20260831092517 70 78 0.0 0.0 0.00 0.00 0.00 71 1019.9
20260831092244 70 77 0.0 0.0 0.00 0.00 0.00 71 1019.9
20260831091744 70 77 0.0 0.0 0.00 0.00 0.00 70 1019.9
20260831091010 70 78 0.0 0.0 0.00 0.00 0.00 70 1020.2
20260831090741 70 78 0.0 0.0 0.00 0.00 0.00 70 1020.0
20260831090004 70 79 0.0 0.0 0.00 0.00 0.00 70 1020.0
20260831085505 70 78 0.0 0.0 0.00 0.00 0.00 70 1019.8
20260831085004 70 78 0.0 0.0 0.00 0.00 0.00 70 1019.8
20260831084505 70 79 0.0 0.0 0.00 0.00 0.00 70 1019.8
20260831084005 71 86 0.0 0.0 0.00 0.00 0.00 70 1019.8
20260831083507 71 76 0.0 0.0 0.00 0.00 0.00 70 1019.8